Date String (YYYY-MM-DD hh:mm:ss) UTC,Instrument flags,Ambient pressure (hPa),Sample flow (lpm),Bypass flow (lpm),Sample temperature (°C),Ambient temperature (°C),ASC tube jacket temperature (°C),LED temperature (°C),Box temperature (°C),Sample RH (%),Span deviation,Mass concentration (μg/m³),Mass concentration (μg/m³),Mass concentration (μg/m³)
DateTimeUTC,F1_M11,P_M11,Q1_M11,Q2_M11,T1_M11,T2_M11,T3_M11,T4_M11,T5_M11,U1_M11,ZSPAN_M11,X2_M11,X0_M11,X1_M11
2022-04-17 11:00:00,,0822.1,4.99,0.00,24.9,24.0,00.0,33.9,26.7,13.3,0000.0,0007.13,0027.52,0004.24
2022-04-17 11:01:00,,0822.2,5.03,0.00,24.9,24.0,00.0,33.9,26.7,13.3,0000.0,0007.06,0026.58,0004.22
2022-04-17 11:02:00,,0822.3,5.00,0.00,24.9,24.0,00.0,33.9,26.7,13.3,0000.0,0007.12,0026.36,0004.21
2022-04-17 11:03:00,,0822.3,4.99,0.00,24.9,24.0,00.0,33.9,26.7,13.3,0000.0,0007.14,0025.88,0004.21
2022-04-17 11:04:00,,0822.3,5.00,0.00,24.9,24.0,00.0,33.9,26.7,13.3,0000.0,0007.17,0025.05,0004.21
2022-04-17 11:05:00,,0822.2,5.00,0.00,24.9,24.0,00.0,33.9,26.7,13.3,0000.0,0007.15,0024.05,0004.22
2022-04-17 11:06:00,,0822.0,5.01,0.00,24.9,23.9,00.0,33.9,26.7,13.3,0000.0,0007.23,0024.48,0004.22
2022-04-17 11:07:00,,0822.0,5.00,0.00,24.9,23.9,00.0,33.9,26.7,13.3,0000.0,0007.33,0025.12,0004.22
2022-04-17 11:08:00,,0822.0,5.00,0.00,24.9,23.9,00.0,33.9,26.7,13.3,0000.0,0007.28,0024.09,0004.21
2022-04-17 11:09:00,,0822.1,5.00,0.00,24.9,24.0,00.0,33.9,26.7,13.3,0000.0,0007.28,0024.38,0004.20
2022-04-17 11:10:00,,0822.1,4.99,0.00,24.9,24.0,00.0,33.9,26.7,13.4,0000.0,0007.34,0024.10,0004.21
2022-04-17 11:11:00,,0822.1,5.00,0.00,24.8,24.0,00.0,33.9,26.7,13.3,0000.0,0007.40,0025.16,0004.22
2022-04-17 11:12:00,,0822.1,5.02,0.00,24.8,24.0,00.0,33.8,26.7,13.4,0000.0,0007.49,0025.90,0004.23
2022-04-17 11:13:00,,0822.2,4.99,0.00,24.8,23.9,00.0,33.8,26.6,13.4,0000.0,0007.43,0026.08,0004.23
2022-04-17 11:14:00,,0822.3,5.00,0.00,24.8,23.9,00.0,33.8,26.6,13.4,0000.0,0007.42,0027.48,0004.22
2022-04-17 11:15:00,,0822.2,5.00,0.00,24.8,23.9,00.0,33.8,26.6,13.4,0000.0,0007.49,0028.57,0004.23
2022-04-17 11:16:00,,0822.2,5.01,0.00,24.8,23.9,00.0,33.8,26.6,13.5,0000.0,0007.54,0029.77,0004.23
2022-04-17 11:17:00,,0822.1,4.99,0.00,24.8,23.9,00.0,33.8,26.6,13.5,0000.0,0007.49,0029.95,0004.23
2022-04-17 11:18:00,,0822.1,5.01,0.00,24.8,23.8,00.0,33.8,26.6,13.5,0000.0,0007.40,0029.06,0004.23
2022-04-17 11:19:00,,0822.3,5.01,0.00,24.8,23.8,00.0,33.8,26.6,13.4,0000.0,0007.37,0030.62,0004.23
2022-04-17 11:20:00,,0822.4,5.01,0.00,24.7,23.7,00.0,33.8,26.5,13.4,0000.0,0007.38,0030.98,0004.23
2022-04-17 11:21:00,,0822.5,4.99,0.00,24.7,23.6,00.0,33.8,26.4,13.4,0000.0,0007.36,0031.28,0004.23
2022-04-17 11:22:00,,0822.3,4.99,0.00,24.6,23.6,00.0,33.7,26.3,13.5,0000.0,0007.42,0030.14,0004.24
2022-04-17 11:23:00,,0821.9,5.00,0.00,24.6,23.6,00.0,33.7,26.4,13.6,0000.0,0007.35,0029.40,0004.24
2022-04-17 11:24:00,,0821.7,5.01,0.00,24.6,23.6,00.0,33.7,26.4,13.7,0000.0,0007.35,0028.77,0004.24
2022-04-17 11:25:00,,0821.7,4.99,0.00,24.6,23.6,00.0,33.7,26.3,13.7,0000.0,0007.36,0027.59,0004.23
2022-04-17 11:26:00,,0822.0,5.00,0.00,24.5,23.5,00.0,33.7,26.3,13.6,0000.0,0007.26,0026.87,0004.21
2022-04-17 11:27:00,,0822.1,5.02,0.00,24.5,23.5,00.0,33.6,26.2,13.6,0000.0,0007.24,0025.63,0004.19
2022-04-17 11:28:00,,0822.2,5.00,0.00,24.5,23.4,00.0,33.6,26.2,13.7,0000.0,0007.21,0025.13,0004.19
2022-04-17 11:29:00,,0822.2,5.00,0.00,24.4,23.4,00.0,33.6,26.1,13.7,0000.0,0007.18,0025.91,0004.18
2022-04-17 11:30:00,,0822.1,5.00,0.00,24.4,23.4,00.0,33.6,26.1,13.7,0000.0,0007.14,0023.84,0004.17
2022-04-17 11:31:00,,0822.1,4.99,0.00,24.4,23.4,00.0,33.5,26.1,13.7,0000.0,0007.11,0022.85,0004.16
2022-04-17 11:32:00,,0822.3,4.99,0.00,24.3,23.3,00.0,33.5,26.1,13.7,0000.0,0007.16,0022.06,0004.15
2022-04-17 11:33:00,,0822.3,5.00,0.00,24.3,23.3,00.0,33.5,26.0,13.8,0000.0,0007.12,0022.11,0004.12
2022-04-17 11:34:00,,0822.5,5.02,0.00,24.3,23.2,00.0,33.4,26.0,13.7,0000.0,0007.10,0021.51,0004.10
2022-04-17 11:35:00,,0822.5,5.00,0.00,24.2,23.2,00.0,33.4,25.9,13.7,0000.0,0007.09,0022.17,0004.08
2022-04-17 11:36:00,,0822.5,5.00,0.00,24.2,23.1,00.0,33.4,25.9,13.8,0000.0,0007.07,0024.10,0004.08
2022-04-17 11:37:00,,0822.4,4.99,0.00,24.1,23.0,00.0,33.4,25.7,13.8,0000.0,0007.11,0023.84,0004.09
2022-04-17 11:38:00,,0822.3,4.99,0.00,24.0,22.9,00.0,33.3,25.6,13.9,0000.0,0007.10,0024.78,0004.10
2022-04-17 11:39:00,,0822.3,5.02,0.00,24.0,22.9,00.0,33.3,25.6,14.0,0000.0,0007.09,0024.33,0004.10
2022-04-17 11:40:00,,0822.3,4.99,0.00,24.0,22.8,00.0,33.2,25.5,14.0,0000.0,0007.12,0023.53,0004.11
2022-04-17 11:41:00,,0822.5,4.99,0.00,23.9,22.8,00.0,33.2,25.5,14.0,0000.0,0007.16,0024.94,0004.12
2022-04-17 11:42:00,,0822.6,5.00,0.00,23.9,22.7,00.0,33.2,25.5,14.0,0000.0,0007.18,0025.32,0004.12
2022-04-17 11:43:00,,0822.6,5.01,0.00,23.8,22.7,00.0,33.1,25.4,14.0,0000.0,0007.13,0026.02,0004.13
2022-04-17 11:44:00,,0822.5,5.01,0.00,23.7,22.6,00.0,33.1,25.4,14.1,0000.0,0007.16,0025.57,0004.14
2022-04-17 11:45:00,,0822.5,5.00,0.00,23.7,22.6,00.0,33.0,25.3,14.3,0000.0,0007.12,0026.01,0004.14
2022-04-17 11:46:00,,0822.3,5.00,0.00,23.7,22.6,00.0,33.0,25.3,14.4,0000.0,0007.16,0026.36,0004.17
2022-04-17 11:47:00,,0822.1,4.99,0.00,23.6,22.5,00.0,33.0,25.2,14.5,0000.0,0007.10,0024.64,0004.19
2022-04-17 11:48:00,,0821.9,4.99,0.00,23.6,22.5,00.0,32.9,25.2,14.5,0000.0,0007.09,0024.57,0004.22
2022-04-17 11:49:00,,0822.0,5.00,0.00,23.6,22.6,00.0,32.9,25.3,14.5,0000.0,0007.08,0024.28,0004.24
2022-04-17 11:50:00,,0822.1,5.00,0.00,23.6,22.7,00.0,32.9,25.4,14.5,0000.0,0007.14,0024.72,0004.27
2022-04-17 11:51:00,,0822.2,5.00,0.00,23.7,22.8,00.0,32.9,25.5,14.4,0000.0,0007.16,0025.91,0004.29
2022-04-17 11:52:00,,0822.1,5.00,0.00,23.7,22.9,00.0,32.8,25.5,14.4,0000.0,0007.13,0025.37,0004.31
2022-04-17 11:53:00,,0822.1,5.00,0.00,23.7,22.9,00.0,32.8,25.5,14.4,0000.0,0007.08,0025.13,0004.34
2022-04-17 11:54:00,,0822.1,4.99,0.00,23.6,22.8,00.0,32.8,25.4,14.4,0000.0,0007.05,0024.15,0004.34
2022-04-17 11:55:00,,0822.2,5.00,0.00,23.6,22.8,00.0,32.8,25.4,14.4,0000.0,0006.99,0024.11,0004.36
2022-04-17 11:56:00,,0822.2,5.00,0.00,23.7,22.8,00.0,32.8,25.5,14.4,0000.0,0007.00,0023.61,0004.37
2022-04-17 11:57:00,,0822.2,5.00,0.00,23.7,22.9,00.0,32.8,25.5,14.4,0000.0,0006.99,0022.57,0004.38
2022-04-17 11:58:00,,0822.2,5.00,0.00,23.7,22.9,00.0,32.8,25.5,14.4,0000.0,0006.99,0023.45,0004.38
2022-04-17 11:59:00,,0822.2,5.00,0.00,23.7,22.9,00.0,32.7,25.5,14.4,0000.0,0007.06,0023.41,0004.38
